Language: 


Des rapports , des résumés tant et plus, au choix de chacun....


Données statistiques de la station
Quotidien Rapport Novembre 12, 2017 Unités:  Métrique    Anglais   les deux
« Précédent Jour
Suivant Jour »
Quotidien Hebdomadaire Mensuel Annuel Actuel
  Haut: Bas: Moyen:
Température: 9.6 °C 5.7 °C 7.3 °C
Pt de rosée: 9.0 °C 2.0 °C 6.1 °C
Humidité: 98 % 61 % 91 %
Vitesse du vent: 24.8 km/h 0.0 km/h 6.5 km/h
Rafales: 38.5 km/h - -
Vent:- - WNW
Pression: 1014.1 hPa 0.0 hPa -
Précipitation: 9.9 mm    
Historical Graphs
 
 
Données statistiques pour Novembre 12, 2017
Heure Température Point de rosée Pression Vent Vitesse du vent Refales Humidité Pluie (taux horaire)
00:03 7.3 °C 7.0 °C 1011.1 hPa Calm     98 % 0.0 mm
00:08 7.3 °C 7.0 °C 1011.1 hPa Calm     98 % 0.0 mm
00:10 7.3 °C 7.0 °C 1011.1 hPa Calm     98 % 0.0 mm
00:15 7.4 °C 7.0 °C 1011.1 hPa Calm     98 % 0.0 mm
00:20 7.4 °C 7.0 °C 1011.1 hPa Calm     98 % 0.0 mm
00:25 7.4 °C 7.0 °C 1011.1 hPa Calm     98 % 0.0 mm
00:30 7.4 °C 7.0 °C 1011.1 hPa Calm     98 % 0.0 mm
00:35 7.3 °C 7.0 °C 1011.1 hPa Calm     98 % 0.0 mm
00:40 7.2 °C 7.0 °C 1011.1 hPa Calm     98 % 0.0 mm
00:45 7.1 °C 7.0 °C 1010.0 hPa Calm     98 % 0.0 mm
00:50 7.0 °C 7.0 °C 1010.0 hPa Calm     98 % 0.0 mm
00:55 7.0 °C 7.0 °C 1010.0 hPa Calm     98 % 0.0 mm
01:00 7.0 °C 7.0 °C 1010.0 hPa Calm     98 % 0.0 mm
01:06 7.0 °C 7.0 °C 1010.0 hPa Calm     98 % 0.0 mm
01:11 7.0 °C 7.0 °C 1010.0 hPa Calm     98 % 0.0 mm
01:16 6.9 °C 7.0 °C 1010.0 hPa Calm     98 % 0.0 mm
01:21 6.8 °C 7.0 °C 1010.0 hPa Calm     98 % 0.0 mm
01:26 6.8 °C 7.0 °C 1010.0 hPa Calm     98 % 0.0 mm
01:31 6.8 °C 7.0 °C 1010.0 hPa Calm     98 % 0.0 mm
01:36 6.8 °C 7.0 °C 1010.0 hPa Calm     98 % 0.0 mm
01:41 6.9 °C 7.0 °C 1009.0 hPa Calm     98 % 0.0 mm
01:46 6.9 °C 7.0 °C 1009.0 hPa Calm     98 % 0.0 mm
01:51 6.9 °C 7.0 °C 1009.0 hPa Calm     98 % 0.0 mm
01:56 6.9 °C 7.0 °C 1009.0 hPa Calm     98 % 0.0 mm
02:01 6.9 °C 7.0 °C 1009.0 hPa Calm     98 % 0.0 mm
02:06 6.9 °C 7.0 °C 1009.0 hPa Calm     98 % 0.0 mm
02:11 6.8 °C 7.0 °C 1009.0 hPa Calm     98 % 0.0 mm
02:16 6.8 °C 7.0 °C 1009.0 hPa Calm     98 % 0.0 mm
02:21 6.8 °C 7.0 °C 1009.0 hPa Calm     98 % 0.0 mm
02:26 6.8 °C 7.0 °C 1009.0 hPa Calm     98 % 0.0 mm
02:31 6.8 °C 7.0 °C 1009.0 hPa Calm     98 % 0.0 mm
02:36 6.8 °C 7.0 °C 1009.0 hPa Calm     98 % 0.0 mm
02:41 6.8 °C 7.0 °C 1010.0 hPa Calm     98 % 0.0 mm
02:46 6.8 °C 7.0 °C 1010.0 hPa Calm     98 % 0.0 mm
02:51 6.8 °C 7.0 °C 1010.0 hPa Calm     98 % 0.0 mm
02:56 6.8 °C 7.0 °C 1009.0 hPa Calm     98 % 0.0 mm
03:01 6.8 °C 7.0 °C 0.0 hPa Calm     98 % 0.0 mm
03:06 6.8 °C 7.0 °C 1009.0 hPa Calm     98 % 0.0 mm
03:12 6.8 °C 7.0 °C 1008.0 hPa Calm     98 % 0.0 mm
03:17 6.8 °C 7.0 °C 1008.0 hPa Calm     98 % 0.0 mm
03:22 6.9 °C 7.0 °C 1008.0 hPa Calm     98 % 0.0 mm
03:27 6.9 °C 7.0 °C 1008.0 hPa Calm     98 % 0.0 mm
03:32 6.9 °C 7.0 °C 1008.0 hPa Calm     98 % 0.0 mm
03:37 6.9 °C 7.0 °C 1008.0 hPa Calm     98 % 0.0 mm
03:42 6.9 °C 7.0 °C 1007.0 hPa Calm     98 % 0.0 mm
03:47 6.8 °C 7.0 °C 1007.0 hPa Calm     98 % 0.0 mm
03:52 6.8 °C 7.0 °C 1007.0 hPa Calm     98 % 0.0 mm
03:57 6.8 °C 7.0 °C 1007.0 hPa Calm     98 % 0.0 mm
04:02 6.8 °C 7.0 °C 1007.0 hPa Calm     98 % 0.0 mm
04:07 6.8 °C 7.0 °C 1007.0 hPa Calm     98 % 0.0 mm
04:12 6.8 °C 7.0 °C 1007.0 hPa Calm     98 % 0.0 mm
04:17 6.9 °C 7.0 °C 1007.0 hPa Calm     98 % 0.0 mm
04:22 6.9 °C 7.0 °C 1007.0 hPa Calm     98 % 0.0 mm
04:24 6.9 °C 7.0 °C 1007.0 hPa Calm     98 % 0.0 mm
04:28 7.0 °C 7.0 °C 1008.0 hPa Calm     98 % 0.0 mm
04:29 7.0 °C 7.0 °C 1008.0 hPa Calm     98 % 0.0 mm
04:34 7.0 °C 7.0 °C 1008.0 hPa Calm     98 % 0.0 mm
04:39 7.0 °C 7.0 °C 1008.0 hPa Calm     98 % 0.0 mm
04:44 7.0 °C 7.0 °C 1007.0 hPa Calm     98 % 0.0 mm
04:49 7.0 °C 7.0 °C 1007.0 hPa Calm     98 % 0.0 mm
04:55 7.0 °C 7.0 °C 1007.0 hPa Calm     98 % 0.0 mm
05:00 7.0 °C 7.0 °C 1006.0 hPa Calm     98 % 0.0 mm
05:05 6.9 °C 7.0 °C 1006.0 hPa Calm     98 % 0.3 mm
05:15 6.9 °C 7.0 °C 1006.0 hPa Calm     98 % 0.3 mm
05:20 6.9 °C 7.0 °C 1006.0 hPa Calm     98 % 0.3 mm
05:25 6.9 °C 7.0 °C 1006.0 hPa Calm     98 % 0.5 mm
05:30 6.9 °C 7.0 °C 1006.0 hPa Calm     98 % 0.8 mm
05:35 6.9 °C 7.0 °C 1006.0 hPa Calm     98 % 0.8 mm
05:40 7.0 °C 7.0 °C 1006.0 hPa Calm     98 % 0.8 mm
05:45 7.0 °C 7.0 °C 1005.0 hPa Calm     98 % 1.3 mm
05:50 7.0 °C 7.0 °C 1005.0 hPa Calm     98 % 1.3 mm
05:55 7.0 °C 7.0 °C 1005.0 hPa Calm     98 % 1.5 mm
06:00 7.0 °C 7.0 °C 1005.0 hPa Calm     98 % 1.5 mm
06:05 7.0 °C 7.0 °C 1005.0 hPa Calm     98 % 1.3 mm
06:10 7.0 °C 7.0 °C 1005.0 hPa Calm     98 % 1.3 mm
06:15 7.0 °C 7.0 °C 1003.9 hPa Calm     98 % 1.5 mm
06:20 7.0 °C 7.0 °C 1003.9 hPa Calm     98 % 1.5 mm
06:25 7.0 °C 7.0 °C 1003.9 hPa Calm     98 % 1.3 mm
06:30 7.0 °C 7.0 °C 1005.0 hPa Calm     98 % 1.3 mm
06:35 7.0 °C 7.0 °C 1005.0 hPa Calm     98 % 1.3 mm
06:40 7.0 °C 7.0 °C 1005.0 hPa West 2.1 km/h 2.1 km/h 98 % 1.5 mm
06:45 7.0 °C 7.0 °C 1005.0 hPa West 2.1 km/h 2.1 km/h 98 % 1.3 mm
06:50 7.0 °C 7.0 °C 1005.0 hPa West 2.1 km/h 2.1 km/h 98 % 1.3 mm
06:55 7.0 °C 7.0 °C 1005.0 hPa West 2.1 km/h 2.1 km/h 98 % 1.3 mm
07:00 7.0 °C 7.0 °C 1003.9 hPa West 2.1 km/h 2.1 km/h 98 % 1.3 mm
07:05 7.0 °C 7.0 °C 1003.9 hPa West 2.1 km/h 2.1 km/h 98 % 1.5 mm
07:10 7.0 °C 7.0 °C 1003.9 hPa West 2.1 km/h 2.1 km/h 98 % 1.5 mm
07:15 7.0 °C 7.0 °C 1003.9 hPa Calm   4.0 km/h 98 % 1.3 mm
07:20 7.0 °C 7.0 °C 1003.9 hPa Calm   4.0 km/h 98 % 1.3 mm
07:25 7.0 °C 7.0 °C 1003.9 hPa Calm     98 % 1.3 mm
07:30 7.0 °C 7.0 °C 1005.0 hPa Calm     98 % 1.3 mm
07:35 7.0 °C 7.0 °C 1005.0 hPa Calm     98 % 1.3 mm
07:40 6.9 °C 7.0 °C 1005.0 hPa Calm     98 % 1.3 mm
07:45 6.8 °C 7.0 °C 1005.0 hPa Calm     98 % 1.3 mm
07:50 6.7 °C 7.0 °C 1005.0 hPa Calm     98 % 1.3 mm
07:55 6.7 °C 7.0 °C 1005.0 hPa Calm     98 % 1.3 mm
08:00 6.7 °C 7.0 °C 1005.0 hPa Calm     98 % 1.5 mm
08:05 6.7 °C 7.0 °C 1005.0 hPa Calm     98 % 1.3 mm
08:10 6.7 °C 7.0 °C 1005.0 hPa Calm     98 % 1.5 mm
08:15 6.7 °C 7.0 °C 1005.0 hPa NW 5.8 km/h 5.8 km/h 98 % 1.8 mm
08:20 6.6 °C 7.0 °C 1005.0 hPa West 3.2 km/h 5.8 km/h 98 % 1.8 mm
08:21 6.6 °C 7.0 °C 1005.0 hPa West 2.6 km/h 5.8 km/h 98 % 1.8 mm
08:26 6.6 °C 7.0 °C 1005.0 hPa West 5.8 km/h 5.8 km/h 98 % 1.8 mm
08:31 6.6 °C 7.0 °C 1005.0 hPa West 5.8 km/h 5.8 km/h 98 % 1.8 mm
08:36 6.6 °C 7.0 °C 1005.0 hPa West 5.8 km/h 5.8 km/h 98 % 1.8 mm
08:41 6.6 °C 7.0 °C 1003.9 hPa Calm   5.8 km/h 98 % 1.5 mm
08:46 6.6 °C 7.0 °C 1003.9 hPa West 1.4 km/h 5.8 km/h 98 % 1.5 mm
08:51 6.6 °C 7.0 °C 1003.9 hPa West 4.0 km/h 4.3 km/h 98 % 1.3 mm
08:56 6.6 °C 7.0 °C 1005.0 hPa WNW 1.4 km/h 4.7 km/h 98 % 1.3 mm
09:01 6.6 °C 7.0 °C 1005.0 hPa Calm   7.6 km/h 98 % 1.0 mm
09:07 6.6 °C 7.0 °C 1005.0 hPa Calm   7.6 km/h 98 % 0.8 mm
09:12 6.7 °C 7.0 °C 1003.9 hPa NW 1.4 km/h 7.2 km/h 98 % 0.3 mm
09:17 6.6 °C 7.0 °C 1003.9 hPa Calm   4.3 km/h 98 % 0.5 mm
09:22 6.5 °C 7.0 °C 1003.9 hPa Calm   4.0 km/h 98 % 0.5 mm
09:27 6.7 °C 7.0 °C 1003.9 hPa North 5.8 km/h 5.8 km/h 98 % 0.3 mm
09:32 6.8 °C 7.0 °C 1003.9 hPa NNW 5.0 km/h 5.8 km/h 98 % 0.3 mm
09:37 6.8 °C 7.0 °C 1003.9 hPa West 2.6 km/h 5.8 km/h 98 % 0.3 mm
09:42 6.8 °C 7.0 °C 1003.9 hPa WNW 2.6 km/h 5.8 km/h 98 % 0.3 mm
09:47 7.0 °C 7.0 °C 1003.9 hPa West 5.0 km/h 6.4 km/h 98 % 0.3 mm
09:52 7.2 °C 7.0 °C 1003.9 hPa Calm   8.7 km/h 98 % 0.3 mm
09:57 7.4 °C 7.0 °C 1003.9 hPa Calm   8.7 km/h 98 % 0.3 mm
10:02 7.3 °C 7.0 °C 1003.9 hPa West 5.5 km/h 9.7 km/h 98 % 0.3 mm
10:07 7.4 °C 7.0 °C 1003.9 hPa West 4.7 km/h 9.7 km/h 98 % 0.3 mm
10:12 7.8 °C 8.0 °C 1003.9 hPa West 1.4 km/h 9.3 km/h 98 % 0.3 mm
10:17 8.1 °C 8.0 °C 1003.9 hPa West 8.7 km/h 8.7 km/h 98 % 0.0 mm
10:22 8.1 °C 8.0 °C 1003.9 hPa West 9.7 km/h 10.1 km/h 98 % 0.0 mm
10:27 8.1 °C 8.0 °C 1003.9 hPa West 13.0 km/h 15.1 km/h 98 % 0.0 mm
10:32 8.0 °C 8.0 °C 1003.9 hPa WNW 15.1 km/h 15.1 km/h 98 % 0.0 mm
10:37 8.0 °C 8.0 °C 1003.9 hPa WSW 6.9 km/h 15.1 km/h 98 % 0.0 mm
10:42 8.0 °C 8.0 °C 1003.9 hPa WSW 7.6 km/h 12.6 km/h 98 % 0.0 mm
10:47 8.1 °C 8.0 °C 1003.9 hPa WSW 6.4 km/h 12.6 km/h 98 % 0.0 mm
10:52 8.2 °C 8.0 °C 1003.9 hPa West 6.4 km/h 13.0 km/h 98 % 0.0 mm
10:57 8.1 °C 8.0 °C 1002.9 hPa WSW 5.8 km/h 13.0 km/h 98 % 0.0 mm
11:02 8.1 °C 8.0 °C 1002.9 hPa West 9.3 km/h 11.6 km/h 98 % 0.0 mm
11:07 8.5 °C 9.0 °C 1002.9 hPa West 9.3 km/h 11.6 km/h 98 % 0.0 mm
11:12 8.7 °C 9.0 °C 1002.9 hPa West 5.0 km/h 9.7 km/h 98 % 0.0 mm
11:17 9.1 °C 9.0 °C 1002.9 hPa NW 3.2 km/h 9.7 km/h 98 % 0.0 mm
11:22 9.4 °C 9.0 °C 1002.9 hPa West 9.7 km/h 9.7 km/h 98 % 0.0 mm
11:27 9.6 °C 9.0 °C 1002.9 hPa West 9.0 km/h 9.7 km/h 97 % 0.0 mm
11:32 9.6 °C 9.0 °C 1002.9 hPa West 7.9 km/h 18.0 km/h 92 % 0.0 mm
11:37 9.4 °C 7.0 °C 1002.9 hPa NW 9.7 km/h 18.0 km/h 86 % 0.0 mm
11:42 9.2 °C 7.0 °C 1002.9 hPa West 11.9 km/h 11.9 km/h 82 % 0.0 mm
11:47 9.0 °C 6.0 °C 1002.9 hPa NW 13.0 km/h 16.3 km/h 80 % 0.0 mm
11:52 8.3 °C 5.0 °C 1002.9 hPa West 9.3 km/h 17.2 km/h 79 % 0.0 mm
11:57 8.2 °C 6.0 °C 1003.9 hPa North 5.8 km/h 20.1 km/h 82 % 0.0 mm
12:02 8.2 °C 6.0 °C 1003.9 hPa West 12.6 km/h 20.1 km/h 84 % 0.0 mm
12:07 8.3 °C 6.0 °C 1003.9 hPa NW 14.0 km/h 14.0 km/h 85 % 0.0 mm
12:12 8.2 °C 6.0 °C 1002.9 hPa NNE 4.7 km/h 15.8 km/h 84 % 0.0 mm
12:17 8.2 °C 6.0 °C 1002.9 hPa NNW 5.8 km/h 15.8 km/h 84 % 0.0 mm
12:22 8.7 °C 6.0 °C 1002.9 hPa NE 13.0 km/h 13.7 km/h 81 % 0.0 mm
12:23 8.7 °C 6.0 °C 1002.9 hPa NE 13.0 km/h 13.7 km/h 81 % 0.0 mm
12:28 9.0 °C 6.0 °C 1002.9 hPa NNW 10.5 km/h 27.0 km/h 79 % 0.0 mm
12:33 8.4 °C 5.0 °C 1002.9 hPa WNW 9.7 km/h 27.0 km/h 76 % 0.0 mm
12:38 8.7 °C 5.0 °C 1002.9 hPa NNW 13.7 km/h 23.8 km/h 76 % 0.0 mm
12:43 8.9 °C 5.0 °C 1003.9 hPa NNW 11.1 km/h 15.4 km/h 74 % 0.0 mm
12:48 9.1 °C 5.0 °C 1003.9 hPa North 8.7 km/h 14.3 km/h 73 % 0.0 mm
12:49 9.0 °C 5.0 °C 1003.9 hPa South 11.6 km/h 14.3 km/h 74 % 0.0 mm
12:54 9.2 °C 5.0 °C 1003.9 hPa WNW 6.1 km/h 16.9 km/h 73 % 0.0 mm
12:59 9.5 °C 5.0 °C 1003.9 hPa West 13.7 km/h 17.2 km/h 72 % 0.0 mm
13:04 9.6 °C 5.0 °C 1003.9 hPa NW 19.5 km/h 19.5 km/h 72 % 0.0 mm
13:09 9.1 °C 4.0 °C 1003.9 hPa NNW 15.4 km/h 19.5 km/h 71 % 0.0 mm
13:19 8.9 °C 4.0 °C 1003.9 hPa NW 12.6 km/h 25.6 km/h 71 % 0.0 mm
13:24 9.4 °C 4.0 °C 1003.9 hPa WNW 5.5 km/h 25.6 km/h 70 % 0.0 mm
13:30 9.4 °C 4.0 °C 1003.9 hPa NW 8.7 km/h 25.3 km/h 68 % 0.0 mm
13:35 9.1 °C 3.0 °C 1003.9 hPa SSE 4.7 km/h 25.3 km/h 67 % 0.0 mm
13:40 9.3 °C 4.0 °C 1003.9 hPa NNW 4.0 km/h 21.9 km/h 69 % 0.0 mm
13:45 9.0 °C 4.0 °C 1005.0 hPa WNW 9.3 km/h 23.3 km/h 68 % 0.0 mm
13:50 8.6 °C 3.0 °C 1005.0 hPa North 16.6 km/h 23.8 km/h 68 % 0.0 mm
13:55 8.3 °C 3.0 °C 1005.0 hPa WNW 16.6 km/h 23.8 km/h 67 % 0.0 mm
14:00 8.2 °C 3.0 °C 1005.0 hPa NNW 13.0 km/h 20.1 km/h 69 % 0.0 mm
14:01 8.2 °C 3.0 °C 1005.0 hPa WNW 12.2 km/h 20.1 km/h 69 % 0.0 mm
14:06 8.0 °C 3.0 °C 1005.0 hPa North 16.3 km/h 20.9 km/h 69 % 0.0 mm
14:11 8.0 °C 3.0 °C 1005.0 hPa NW 10.5 km/h 20.9 km/h 71 % 0.0 mm
14:16 8.7 °C 4.0 °C 1005.0 hPa NE 6.4 km/h 17.7 km/h 70 % 0.0 mm
14:21 9.0 °C 3.0 °C 1005.0 hPa NNW 8.7 km/h 24.8 km/h 67 % 0.0 mm
14:26 8.8 °C 3.0 °C 1005.0 hPa SSW 24.8 km/h 24.8 km/h 63 % 0.0 mm
14:31 8.4 °C 2.0 °C 1005.0 hPa WNW 16.9 km/h 24.8 km/h 62 % 0.0 mm
14:36 8.4 °C 2.0 °C 1005.0 hPa NW 13.7 km/h 24.5 km/h 64 % 0.0 mm
14:41 8.4 °C 2.0 °C 1005.0 hPa NNW 9.7 km/h 16.9 km/h 64 % 0.0 mm
14:46 8.6 °C 3.0 °C 1005.0 hPa WNW 15.4 km/h 17.7 km/h 64 % 0.0 mm
14:51 8.8 °C 3.0 °C 1005.0 hPa NNW 13.7 km/h 18.0 km/h 63 % 0.0 mm
14:56 8.9 °C 2.0 °C 1003.9 hPa ENE 10.5 km/h 19.8 km/h 61 % 0.0 mm
15:01 8.8 °C 2.0 °C 1003.9 hPa North 13.7 km/h 20.9 km/h 62 % 0.0 mm
15:06 9.0 °C 2.0 °C 1003.9 hPa NNW 4.3 km/h 27.0 km/h 62 % 0.0 mm
15:12 8.6 °C 2.0 °C 1003.9 hPa WNW 12.2 km/h 27.0 km/h 62 % 0.0 mm
15:17 8.6 °C 2.0 °C 1003.9 hPa North 19.1 km/h 27.4 km/h 62 % 0.0 mm
15:22 8.5 °C 2.0 °C 1003.9 hPa NNW 10.1 km/h 27.4 km/h 62 % 0.0 mm
15:27 8.4 °C 2.0 °C 1005.0 hPa NNW 6.4 km/h 30.2 km/h 63 % 0.0 mm
15:32 8.3 °C 2.0 °C 1005.0 hPa West 10.5 km/h 36.4 km/h 62 % 0.0 mm
15:37 8.2 °C 2.0 °C 1005.0 hPa NNW 9.7 km/h 36.4 km/h 65 % 0.0 mm
15:42 8.1 °C 2.0 °C 1005.0 hPa WNW 9.7 km/h 20.6 km/h 66 % 0.0 mm
15:47 8.0 °C 2.0 °C 1005.0 hPa ENE 13.0 km/h 24.8 km/h 66 % 0.0 mm
15:52 8.0 °C 3.0 °C 1005.0 hPa North 8.7 km/h 24.8 km/h 68 % 0.0 mm
15:57 8.0 °C 3.0 °C 1005.0 hPa WSW 6.9 km/h 19.5 km/h 69 % 0.0 mm
16:02 8.0 °C 3.0 °C 1005.0 hPa NNW 16.6 km/h 19.5 km/h 70 % 0.0 mm
16:07 8.0 °C 3.0 °C 1005.0 hPa NNW 13.0 km/h 21.2 km/h 70 % 0.0 mm
16:09 8.0 °C 3.0 °C 1005.0 hPa NNW 6.1 km/h 21.2 km/h 70 % 0.0 mm
16:14 8.0 °C 3.0 °C 1005.0 hPa NW 9.3 km/h 21.2 km/h 71 % 0.0 mm
16:19 7.9 °C 3.0 °C 1005.0 hPa WNW 10.1 km/h 19.1 km/h 71 % 0.0 mm
16:24 7.9 °C 3.0 °C 1005.0 hPa NNE 8.7 km/h 16.9 km/h 72 % 0.0 mm
16:29 7.7 °C 4.0 °C 1006.0 hPa NE 9.3 km/h 30.6 km/h 76 % 0.0 mm
16:34 7.3 °C 4.0 °C 1006.0 hPa NNW 17.2 km/h 30.6 km/h 79 % 0.0 mm
16:39 7.0 °C 4.0 °C 1006.0 hPa NW 16.9 km/h 28.0 km/h 82 % 0.0 mm
16:44 6.8 °C 5.0 °C 1006.0 hPa North 7.6 km/h 28.0 km/h 85 % 0.0 mm
16:49 6.8 °C 5.0 °C 1006.0 hPa WNW 9.0 km/h 17.2 km/h 86 % 0.0 mm
16:54 6.7 °C 5.0 °C 1006.0 hPa North 9.3 km/h 21.2 km/h 88 % 0.0 mm
16:59 6.7 °C 5.0 °C 1006.0 hPa North 9.0 km/h 21.2 km/h 89 % 0.0 mm
17:04 6.7 °C 5.0 °C 1006.0 hPa NW 10.1 km/h 20.1 km/h 90 % 0.0 mm
17:09 6.7 °C 6.0 °C 1006.0 hPa WNW 5.0 km/h 20.1 km/h 92 % 0.0 mm
17:14 6.8 °C 6.0 °C 1006.0 hPa WNW 9.0 km/h 23.3 km/h 92 % 0.0 mm
17:19 6.8 °C 6.0 °C 1006.0 hPa WSW 10.1 km/h 23.3 km/h 92 % 0.0 mm
17:24 6.8 °C 6.0 °C 1006.0 hPa NNW 12.2 km/h 32.0 km/h 91 % 0.0 mm
17:29 6.8 °C 6.0 °C 1007.0 hPa NNW 9.3 km/h 32.0 km/h 91 % 0.3 mm
17:34 6.8 °C 6.0 °C 1007.0 hPa West 10.1 km/h 23.3 km/h 92 % 0.3 mm
17:39 6.8 °C 6.0 °C 1007.0 hPa North 12.6 km/h 23.0 km/h 93 % 0.8 mm
17:44 6.7 °C 6.0 °C 1007.0 hPa WNW 12.6 km/h 23.0 km/h 94 % 0.8 mm
17:49 6.7 °C 6.0 °C 1007.0 hPa NNE 8.7 km/h 19.8 km/h 94 % 0.8 mm
17:54 6.7 °C 6.0 °C 1007.0 hPa NW 12.2 km/h 24.8 km/h 94 % 0.8 mm
17:59 6.7 °C 6.0 °C 1006.0 hPa NNW 10.1 km/h 38.1 km/h 95 % 0.8 mm
18:04 6.8 °C 6.0 °C 1006.0 hPa North 5.8 km/h 38.1 km/h 95 % 0.8 mm
18:09 6.8 °C 6.0 °C 1006.0 hPa North 11.6 km/h 30.9 km/h 95 % 0.8 mm
18:14 6.8 °C 6.0 °C 1007.0 hPa North 17.2 km/h 36.4 km/h 96 % 1.3 mm
18:19 6.8 °C 6.0 °C 1007.0 hPa NW 12.2 km/h 36.4 km/h 96 % 1.3 mm
18:24 6.8 °C 6.0 °C 1007.0 hPa NNW 22.4 km/h 24.5 km/h 96 % 1.3 mm
18:29 6.8 °C 6.0 °C 1007.0 hPa North 13.0 km/h 24.5 km/h 95 % 0.8 mm
18:34 6.9 °C 6.0 °C 1007.0 hPa NNW 20.6 km/h 30.6 km/h 95 % 0.8 mm
18:35 6.9 °C 6.0 °C 1007.0 hPa WNW 13.0 km/h 30.6 km/h 95 % 0.8 mm
18:40 7.0 °C 6.0 °C 1007.0 hPa North 16.3 km/h 30.6 km/h 94 % 0.3 mm
18:45 7.1 °C 6.0 °C 1008.0 hPa NNW 10.1 km/h 19.5 km/h 94 % 0.3 mm
18:50 7.1 °C 6.0 °C 1008.0 hPa NNW 15.8 km/h 28.0 km/h 94 % 0.3 mm
18:55 7.1 °C 6.0 °C 1009.0 hPa WNW 5.5 km/h 28.0 km/h 94 % 0.3 mm
19:00 7.1 °C 6.0 °C 1009.0 hPa North 14.0 km/h 24.5 km/h 94 % 0.5 mm
19:05 7.1 °C 6.0 °C 1009.0 hPa NNW 10.5 km/h 17.2 km/h 95 % 0.5 mm
19:10 7.1 °C 6.0 °C 1009.0 hPa NNW 12.6 km/h 17.2 km/h 95 % 0.5 mm
19:15 7.1 °C 6.0 °C 1009.0 hPa North 14.0 km/h 14.0 km/h 95 % 0.3 mm
19:20 7.1 °C 6.0 °C 1009.0 hPa WNW 5.0 km/h 14.0 km/h 95 % 0.3 mm
19:26 7.2 °C 7.0 °C 1009.0 hPa NNW 17.2 km/h 23.8 km/h 96 % 0.3 mm
19:31 7.3 °C 7.0 °C 1009.0 hPa North 12.6 km/h 23.8 km/h 96 % 0.8 mm
19:36 7.3 °C 7.0 °C 1009.0 hPa NNE 9.7 km/h 23.8 km/h 96 % 0.8 mm
19:41 7.2 °C 7.0 °C 1009.0 hPa North 5.5 km/h 16.6 km/h 96 % 0.8 mm
19:46 7.3 °C 7.0 °C 1009.0 hPa NE 6.9 km/h 18.0 km/h 96 % 0.8 mm
19:51 7.3 °C 7.0 °C 1009.0 hPa NW 3.2 km/h 19.5 km/h 95 % 0.8 mm
19:56 7.3 °C 7.0 °C 1010.0 hPa North 8.7 km/h 19.5 km/h 95 % 0.8 mm
20:01 7.2 °C 7.0 °C 1010.0 hPa North 8.7 km/h 16.6 km/h 96 % 0.8 mm
20:06 7.1 °C 7.0 °C 1010.0 hPa NNW 16.6 km/h 16.9 km/h 96 % 0.8 mm
20:11 7.1 °C 7.0 °C 1010.0 hPa NNW 15.1 km/h 21.2 km/h 96 % 0.8 mm
20:16 7.0 °C 6.0 °C 1010.0 hPa WNW 13.7 km/h 28.0 km/h 94 % 0.8 mm
20:21 7.1 °C 6.0 °C 1010.0 hPa NNE 9.0 km/h 28.0 km/h 94 % 0.8 mm
20:26 7.1 °C 6.0 °C 1010.0 hPa NW 19.8 km/h 19.8 km/h 95 % 0.3 mm
20:31 7.1 °C 6.0 °C 1010.0 hPa ESE 10.5 km/h 20.6 km/h 95 % 0.3 mm
20:36 7.1 °C 6.0 °C 1010.0 hPa North 10.5 km/h 23.8 km/h 94 % 0.3 mm
20:41 7.0 °C 6.0 °C 1011.1 hPa NW 13.0 km/h 23.8 km/h 92 % 0.3 mm
20:46 6.8 °C 5.0 °C 1011.1 hPa NW 14.3 km/h 27.0 km/h 86 % 0.3 mm
20:51 6.7 °C 5.0 °C 1011.1 hPa NNW 11.6 km/h 27.0 km/h 87 % 0.3 mm
20:56 6.5 °C 5.0 °C 1011.1 hPa North 12.2 km/h 19.5 km/h 88 % 0.3 mm
21:01 6.4 °C 5.0 °C 1011.1 hPa NW 6.4 km/h 19.5 km/h 89 % 0.0 mm
21:06 6.4 °C 5.0 °C 1011.1 hPa North 9.3 km/h 16.3 km/h 91 % 0.3 mm
21:11 6.4 °C 6.0 °C 1011.1 hPa North 12.2 km/h 15.8 km/h 93 % 0.3 mm
21:16 6.4 °C 6.0 °C 1011.1 hPa WNW 5.8 km/h 13.0 km/h 94 % 0.3 mm
21:21 6.4 °C 6.0 °C 1011.1 hPa WNW 9.7 km/h 12.2 km/h 95 % 0.3 mm
21:26 6.5 °C 6.0 °C 1011.1 hPa North 12.2 km/h 12.2 km/h 95 % 0.3 mm
21:31 6.5 °C 6.0 °C 1011.1 hPa WSW 8.7 km/h 12.6 km/h 94 % 0.3 mm
21:36 6.6 °C 6.0 °C 1011.1 hPa NW 13.0 km/h 25.9 km/h 95 % 0.3 mm
21:41 6.6 °C 6.0 °C 1011.1 hPa North 12.6 km/h 25.9 km/h 95 % 0.3 mm
21:46 6.6 °C 6.0 °C 1011.1 hPa NNW 9.7 km/h 28.0 km/h 95 % 0.3 mm
21:51 6.5 °C 6.0 °C 1011.1 hPa WNW 13.7 km/h 28.0 km/h 95 % 0.3 mm
21:56 6.4 °C 6.0 °C 1011.1 hPa NNW 10.1 km/h 21.2 km/h 95 % 0.3 mm
22:01 6.5 °C 6.0 °C 1011.1 hPa NNW 5.8 km/h 14.0 km/h 95 % 0.3 mm
22:06 6.6 °C 6.0 °C 1011.1 hPa NNW 9.0 km/h 14.0 km/h 95 % 0.0 mm
22:11 6.6 °C 6.0 °C 1012.1 hPa North 7.9 km/h 9.3 km/h 95 % 0.0 mm
22:16 6.6 °C 6.0 °C 1012.1 hPa North 9.7 km/h 9.7 km/h 95 % 0.0 mm
22:21 6.7 °C 6.0 °C 1012.1 hPa NNW 7.9 km/h 9.7 km/h 96 % 0.0 mm
22:24 6.6 °C 6.0 °C 1012.1 hPa NW 17.7 km/h 28.0 km/h 96 % 0.0 mm
22:27 6.4 °C 6.0 °C 1013.1 hPa NNW 9.3 km/h 28.0 km/h 95 % 0.3 mm
22:31 6.3 °C 6.0 °C 1013.1 hPa North 7.9 km/h 28.0 km/h 95 % 0.3 mm
22:37 6.3 °C 6.0 °C 1013.1 hPa NW 8.7 km/h 17.7 km/h 95 % 0.5 mm
22:42 6.3 °C 6.0 °C 1013.1 hPa NNE 6.4 km/h 16.3 km/h 95 % 0.5 mm
22:43 6.3 °C 6.0 °C 1013.1 hPa NNE 9.7 km/h 16.3 km/h 95 % 0.5 mm
22:48 6.3 °C 6.0 °C 1013.1 hPa NNE 9.7 km/h 12.6 km/h 96 % 0.5 mm
22:53 6.3 °C 6.0 °C 1013.1 hPa WNW 5.8 km/h 13.0 km/h 96 % 0.5 mm
22:58 6.4 °C 6.0 °C 1013.1 hPa WNW 9.3 km/h 13.0 km/h 97 % 0.5 mm
23:03 6.6 °C 7.0 °C 1013.1 hPa NNW 16.6 km/h 23.3 km/h 98 % 0.5 mm
23:08 6.3 °C 6.0 °C 1013.1 hPa WNW 20.9 km/h 38.5 km/h 96 % 1.3 mm
23:13 6.0 °C 6.0 °C 1013.1 hPa NNW 12.2 km/h 38.5 km/h 96 % 1.3 mm
23:18 6.0 °C 6.0 °C 1013.1 hPa North 15.4 km/h 20.9 km/h 95 % 1.5 mm
23:23 5.9 °C 6.0 °C 1013.1 hPa NW 3.2 km/h 17.2 km/h 95 % 1.8 mm
23:28 5.8 °C 6.0 °C 1013.1 hPa Calm   15.4 km/h 96 % 1.5 mm
23:33 5.7 °C 6.0 °C 1013.1 hPa NW 9.7 km/h 9.7 km/h 96 % 1.3 mm
23:38 5.7 °C 6.0 °C 1013.1 hPa Calm   9.7 km/h 96 % 1.3 mm
23:43 5.7 °C 6.0 °C 1014.1 hPa ENE 9.7 km/h 9.7 km/h 96 % 1.3 mm
23:48 5.8 °C 6.0 °C 1014.1 hPa NW 16.9 km/h 16.9 km/h 97 % 1.3 mm
23:53 5.9 °C 6.0 °C 1014.1 hPa NNW 6.1 km/h 16.9 km/h 98 % 1.3 mm
23:58 5.9 °C 6.0 °C 1014.1 hPa North 15.4 km/h 16.9 km/h 97 % 1.3 mm
Le Gheer Warneton
Courtoisie de Weather Underground - 2.25 mb

Mise a jour : 18/12/2017 04:16:12
Généré par Cumulus 1.9.4 (1099)